Orbital Elements at Epoch 2459200.5 (2020-Dec-17.0) TDB
Reference: JPL 31 (heliocentric ecliptic J2000)
Element | Value | Uncertainty (1-sigma) | Units |
e | .1324400734966111 | 3.5474e-08 | |
a | 3.063517469759513 | 1.7891e-08 | au |
q | 2.657784990906411 | 1.0337e-07 | au |
i | 11.56980524057369 | 3.8361e-06 | deg |
node | 153.7907547443781 | 1.7974e-05 | deg |
peri | 170.9089591917273 | 2.3126e-05 | deg |
M | 85.85324294381159 | 1.3887e-05 | deg |
tp | 2458733.428710436446 (2019-Sep-06.92871044) | 7.5137e-05 | TDB |
period | 1958.524319843408 5.36 | 1.7157e-05 4.697e-08 | d yr |
n | .1838118609774442 | 1.6102e-09 | deg/d |
Q | 3.469249948612615 | 2.0261e-08 | au |
|
| | Orbit Determination Parameters
Additional Information
|